Flag Weather past 2 weeks in Geneva, Geneva, Switzerland

Now
46 °F

Cool.


Feels Like: 46 °F
Forecast: 42 / 61 °F
Wind: 2 mph from North

Location: Geneve-Cointrin

Current Time: Nov 24, 2014 at 10:20:00 AM

Latest Report: Nov 24, 2014 at 9:00 AM


Visibility: N/A

Pressure: 30.23 "Hg

Humidity: 93%

Dew point: 44 °F

Location of GenevaLocation

Historic Weather in Geneva — Graph

°F

Geneva temperature yesterday

Maximum temperature yesterday: 47 °F (at 4:00 PM)
Minimum temperature yesterday: 44 °F (at 3:00 AM)
Average temperature yesterday: 46 °F

Past Weeks' High & Low Weather Summary

 TemperatureHumidityPressure
High54 °F (Nov 13, 2:00 PM)96% (Nov 24, 3:00 AM)30.30 "Hg (Nov 24, 3:00 AM)
Low35 °F (Nov 20, 1:00 AM)58% (Nov 16, 3:00 PM)29.62 "Hg (Nov 15, 3:00 PM)
Average46 °F88%29.93 "Hg
* Reported Nov 9 9:00 AM — Nov 24 9:00 AM, Geneva, Weather by CustomWeather, © 2014

Note: Actual official high and low records may vary slightly from our data, if they occured in-between our weather recording intervals... More about our weather records

Advertising

Geneva weather history for previous 24 hours

 ConditionsComfort  
Time TempWeatherWind HumidityBarometerVisibility
9:00 AM
Nov 24
46 °FCool.2 mph93%30.23 "HgN/A
8:00 AM46 °FCool.2 mph94%30.22 "HgN/A
7:00 AM46 °FFog.3 mph93%30.22 "Hg1 mi
6:00 AM46 °FCool.2 mph93%30.22 "HgN/A
5:00 AM46 °FCool.3 mph95%30.20 "HgN/A
4:00 AM46 °FFog.2 mph95%30.22 "Hg0 mi
3:00 AM46 °FCool.2 mph96%30.21 "HgN/A
2:00 AM47 °FCool.5 mph93%30.21 "HgN/A
1:00 AM46 °FFog.2 mph93%30.22 "Hg1 mi
12:00 AM46 °FCool.2 mph95%30.23 "HgN/A
11:00 PM
Nov 23
46 °FCool.2 mph92%30.23 "HgN/A
10:00 PM46 °FDrizzle. Low clouds.6 mph92%30.22 "Hg2 mi
9:00 PM46 °FCool.2 mph92%30.22 "HgN/A
8:00 PM46 °FCool.2 mph92%30.21 "HgN/A
7:00 PM46 °FCool.3 mph91%30.20 "HgN/A
6:00 PM47 °FCool.2 mph89%30.20 "HgN/A
5:00 PM47 °FCool.1 mph88%30.19 "HgN/A
4:00 PM47 °FFog.1 mph87%30.19 "Hg3 mi
3:00 PM47 °FCool.1 mph88%30.20 "HgN/A
2:00 PM46 °FCool.1 mph89%30.22 "HgN/A
1:00 PM46 °FFog.2 mph89%30.23 "Hg2 mi
12:00 PM45 °FCool.1 mph92%30.26 "HgN/A
11:00 AM45 °FCool.2 mph91%30.27 "HgN/A
10:00 AM45 °FFog.1 mph93%30.27 "Hg1 mi
Weather by CustomWeather, © 2014

See weather overviewHow to use our weather pages